Temperature
10 12 12 13 13 14 14 14 14 14 12 12 13 14 15 14 13 14 14 14 13 13 12 11 11 11 11 11 11 11 11 11 10 10 10 10 10 10 9 9 9 9 9 9
10 11 13 13 12 12 12 13 14 13 11 12 13 14 15 15 14 14 14 14 13 13 12 11 11 11 11 11 11 11 10 10 10 10 10 10 9 9 9 9 9 9 9 8
11 11 11 11 11 11 12 13 13 13 11 11 12 14 15 14 13 13 12 13 13 12 12 11 10 10 11 11 11 11 10 10 10 10 9 9 9 9 9 9 9 8 8 8
11 10 10 10 11 11 12 12 12 11 12 13 12 15 16 15 13 13 12 12 12 12 11 11 10 10 10 11 11 10 10 10 9 9 9 9 9 8 8 8 8 8 8 8
10 9 9 10 11 11 11 10 11 11 12 12 12 12 16 14 14 14 13 12 11 11 10 10 10 10 10 10 10 10 10 9 9 9 9 9 8 8 8 8 8 7 7 7
9 9 10 10 10 10 9 10 10 10 11 11 12 13 15 15 14 14 13 12 11 10 10 9 9 10 10 10 10 10 9 9 9 9 8 8 8 8 8 7 7 7 7 7
8 8 8 9 9 9 10 11 10 10 10 12 11 12 14 14 13 13 12 11 10 9 9 9 9 9 9 9 9 9 9 9 8 8 8 8 8 7 7 7 7 6 6 6
8 8 8 9 10 9 10 11 11 12 13 13 9 11 13 12 11 10 10 10 9 9 8 8 8 8 9 9 9 9 9 8 8 8 8 7 7 7 7 6 6 6 6 6
9 9 8 8 9 10 9 10 11 11 10 11 12 12 12 11 10 10 10 9 9 8 8 8 8 8 8 8 9 8 8 8 8 7 7 7 7 6 6 6 6 6 5 5
8 7 7 7 8 8 9 10 9 9 10 12 13 12 13 12 11 10 10 9 9 7 7 7 7 7 7 7 8 8 7 7 7 7 7 7 6 6 6 6 5 5 5 5
7 6 6 7 7 8 7 8 9 10 10 12 13 14 12 11 11 10 10 9 8 7 6 6 6 6 6 7 7 7 7 7 7 7 7 6 6 6 5 5 5 5 5 5
7 7 6 7 6 7 8 9 9 9 8 9 12 13 10 10 9 9 9 8 7 6 6 6 6 6 6 6 6 6 6 6 6 6 6 6 6 5 5 5 5 5 4 4
5 5 6 6 6 5 6 6 7 7 8 9 11 12 9 9 9 8 7 7 6 5 5 5 5 5 5 5 6 6 6 6 6 6 5 5 5 5 4 4 4 4 4 4
5 4 6 8 8 6 5 5 5 6 8 9 10 11 10 9 9 8 7 6 5 5 4 4 4 5 5 5 5 5 5 5 5 5 5 4 4 4 4 4 4 4 3 3
4 4 4 5 6 6 6 6 5 6 7 8 10 10 10 9 9 7 6 5 5 4 4 4 4 4 4 4 4 5 5 5 4 4 4 4 4 4 4 3 3 3 3 3
3 3 4 4 5 5 5 6 6 6 7 7 8 8 9 8 7 6 6 5 4 4 3 3 3 4 4 4 4 4 4 4 4 4 4 3 3 3 3 3 3 3 2 2
2 2 4 5 4 4 5 5 6 6 6 7 7 8 7 7 6 6 5 4 4 3 3 3 3 3 3 3 3 3 3 3 3 3 3 3 3 3 2 2 2 2 2 2
1 2 3 4 3 4 6 5 5 5 5 5 6 6 6 6 5 4 4 3 3 3 3 2 2 2 2 2 3 3 3 2 2 2 2 2 2 2 2 2 1 1 1 1
2 2 2 3 4 5 5 4 3 4 4 4 4 5 4 3 4 3 3 3 2 2 2 2 2 2 2 2 2 2 2 2 1 1 1 1 1 1 1 1 1 0 0 0
1 1 2 3 4 4 5 3 2 4 4 3 3 3 3 3 5 5 2 2 2 2 1 1 1 1 1 1 1 1 1 1 1 1 1 1 0 0 0 0 0 0 -0 -0
1 1 2 2 3 4 3 2 3 4 4 2 1 2 2 3 3 2 1 1 1 1 1 1 1 1 0 0 0 0 0 0 0 0 0 0 0 -0 -0 -0 -0 -0 -1 -0
2 2 1 2 2 3 1 2 3 3 1 0 0 0 0 0 0 -0 -0 -0 -0 -0 -0 -0 -0 -0 -0 -0 -0 -0 -0 -0 -0 -0 -0 -0 -0 -1 -1 -1 -1 -1 -1 -1
1 2 2 2 3 1 0 0 0 0 -0 -1 -1 -1 -1 -1 -1 -1 -1 -1 -1 -1 -1 -1 -1 -1 -1 -1 -1 -1 -1 -1 -1 -1 -1 -1 -1 -1 -1 -1 -1 -1 -2 -2
0 -0 0 1 1 0 -1 -1 -1 -1 -1 -1 -1 -1 -1 -1 -2 -2 -2 -2 -2 -2 -2 -2 -2 -2 -1 -1 -1 -1 -2 -2 -1 -1 -1 -1 -2 -2 -1 -2 -2 -2 -2 -2
0 -1 -0 0 -0 -1 -1 -2 -2 -2 -2 -2 -2 -2 -2 -2 -2 -2 -2 -2 -2 -2 -2 -2 -2 -2 -2 -2 -2 -2 -2 -2 -2 -2 -2 -2 -2 -2 -2 -2 -3 -3 -3 -3
-2 -1 -0 1 -1 -1 -1 -2 -2 -2 -2 -2 -3 -3 -3 -3 -3 -3 -3 -3 -3 -3 -3 -3 -3 -3 -3 -3 -3 -3 -3 -3 -3 -3 -3 -3 -3 -3 -3 -3 -3 -3 -3 -3
Wind_Speed
8 10 14 16 17 6 6 8 8 5 3 7 12 15 13 11 11 12 12 12 12 12 11 10 11 10 10 9 9 8 8 7 5 4 4 3 2 2 1 1 1 1 2 2
8 15 13 10 11 10 8 8 8 3 2 5 9 15 14 13 14 13 13 13 13 12 11 10 10 10 11 10 9 9 8 7 6 4 3 2 2 2 2 2 2 2 2 3
13 5 9 11 11 13 13 13 10 5 2 4 6 11 11 9 11 11 12 12 12 12 12 12 11 11 11 10 10 8 8 8 7 5 3 2 2 2 2 2 2 2 3 3
12 6 8 12 14 13 12 9 8 6 5 5 4 6 6 6 8 9 10 10 11 11 11 11 11 11 11 10 9 8 8 7 6 5 4 4 4 4 4 3 3 4 4 4
9 9 10 12 11 12 5 5 6 6 6 6 7 7 7 5 8 8 9 9 8 8 9 10 10 10 10 9 8 7 7 6 6 5 5 5 4 4 3 3 4 5 4 5
5 5 7 7 5 9 8 7 5 3 4 8 10 10 8 6 7 5 6 7 7 7 8 8 8 8 8 7 7 6 7 6 5 5 5 5 5 5 4 5 5 5 5 5
7 7 5 5 7 9 9 8 5 5 7 9 6 9 8 3 3 4 4 4 4 6 7 7 8 8 7 7 6 6 6 6 5 5 5 6 6 6 6 6 6 6 6 6
10 9 11 9 9 10 14 11 8 8 7 5 6 9 4 1 2 2 2 2 3 4 5 6 6 6 6 6 6 6 6 6 5 5 5 5 6 5 5 6 6 7 6 7
10 7 6 7 5 9 11 11 5 2 1 4 6 5 4 3 3 3 3 3 3 4 4 4 5 5 5 6 6 6 6 5 5 5 5 5 5 6 6 7 7 7 7 7
4 4 5 5 4 4 5 8 6 6 6 8 7 7 6 6 5 4 4 3 3 3 3 4 4 4 4 4 4 5 5 5 4 4 4 4 5 6 6 6 7 8 9 8
4 4 5 6 10 11 8 8 7 6 5 6 7 4 2 4 4 4 3 2 2 3 3 3 3 3 3 3 3 3 4 3 3 3 4 4 5 5 6 6 7 8 8 9
5 4 4 5 1 3 9 10 10 7 6 4 5 3 4 2 2 2 2 2 2 2 2 2 2 3 3 2 2 2 2 2 2 3 4 4 5 5 6 7 7 8 9 9
6 5 5 4 4 3 6 6 7 3 4 7 8 4 4 2 2 1 1 2 2 2 2 2 2 2 2 1 1 1 1 1 2 3 4 4 5 5 7 7 8 8 9 9
4 4 6 9 4 7 8 9 9 7 7 8 11 7 5 2 0 0 1 1 1 2 2 1 1 1 1 0 0 1 1 2 2 3 4 5 5 6 7 7 8 8 9 10
2 3 4 4 2 5 8 12 14 13 12 10 10 10 7 4 2 2 1 1 1 1 1 0 0 0 0 0 1 1 2 3 3 3 4 5 6 6 7 7 8 8 9 9
1 3 3 4 4 5 7 11 15 16 15 14 11 10 5 3 2 2 2 2 2 2 1 1 1 0 1 1 2 2 3 4 4 4 5 5 6 6 7 7 8 8 9 9
3 3 4 4 3 3 8 11 13 12 12 12 14 11 4 3 3 3 3 3 3 2 2 1 1 1 2 2 3 3 4 4 4 4 5 6 6 6 7 7 8 8 9 9
4 3 2 2 4 8 2 1 6 9 8 8 7 5 6 5 3 3 2 3 2 1 1 2 2 2 2 3 3 3 3 3 4 4 5 6 6 7 8 8 8 8 8 9
6 4 3 3 5 5 2 0 2 6 5 5 7 6 3 2 2 2 1 1 1 2 2 2 2 2 3 3 3 3 3 4 4 5 6 6 7 8 8 9 9 9 9 9
4 4 3 3 5 5 1 1 1 3 4 1 3 5 3 4 5 3 0 1 1 2 2 2 2 2 2 3 3 3 4 4 5 6 7 7 7 8 9 9 10 9 9 9
4 4 5 5 5 4 1 1 3 5 1 1 1 2 3 3 2 0 1 2 2 2 2 2 2 2 3 3 3 3 4 5 6 7 7 7 8 8 9 9 9 9 9 9
5 5 5 5 5 5 1 3 3 1 2 1 1 0 1 1 0 0 1 1 2 2 3 3 3 3 4 4 4 4 5 6 6 7 7 7 8 7 7 8 9 9 8 9
4 4 3 4 3 1 2 2 1 1 0 0 1 0 1 1 0 0 1 2 2 2 3 3 3 4 4 5 4 5 6 7 7 7 7 7 8 7 7 8 8 8 7 7
3 1 2 3 3 1 1 0 1 1 1 1 1 1 0 0 1 1 1 2 3 3 3 4 4 4 5 6 6 6 6 7 7 7 8 7 7 7 7 6 6 7 7 7
2 3 3 3 2 1 1 1 1 1 2 2 2 1 0 0 1 2 2 3 3 4 4 4 4 5 6 6 7 7 6 6 7 7 7 7 6 7 7 7 7 8 7 7
2 3 3 3 2 2 1 1 1 1 2 2 2 2 2 1 1 2 2 3 3 4 4 4 5 6 7 7 7 7 7 7 7 7 7 6 6 6 6 7 8 8 9 11
Wind_Direction
179 198 208 206 210 233 215 211 220 211 178 219 238 251 250 238 233 233 228 220 216 215 207 198 194 190 186 184 183 182 180 176 172 171 176 183 188 200 212 223 247 269 293 306
184 220 220 209 206 213 212 218 225 215 188 240 262 265 258 245 235 233 229 224 220 215 204 195 191 188 188 185 185 183 184 182 183 185 187 197 198 220 233 240 249 264 277 287
205 205 193 191 195 207 221 227 228 223 213 236 284 269 240 230 227 227 229 229 225 216 206 195 191 189 188 188 188 187 187 187 188 185 175 171 201 219 228 236 250 266 277 275
221 202 184 194 204 206 223 223 221 214 227 240 248 270 237 216 215 220 223 221 220 211 206 197 191 189 190 189 185 187 186 187 187 187 194 200 218 235 250 255 262 271 271 273
208 191 188 201 207 200 201 168 190 209 230 255 228 250 254 207 227 227 217 212 210 203 198 194 190 189 188 183 181 184 184 187 189 196 201 213 230 244 253 259 264 273 274 274
215 198 206 203 188 184 145 133 131 178 222 246 227 226 252 215 225 218 203 201 199 192 187 185 183 182 181 177 176 179 182 188 192 201 210 221 232 244 253 261 268 272 274 274
205 207 197 170 151 169 179 170 176 199 214 234 188 220 246 234 226 226 209 194 183 176 177 176 175 177 176 175 178 182 186 191 197 207 220 230 237 244 251 262 267 274 276 278
194 205 195 193 194 184 195 198 201 211 222 209 189 227 237 239 231 228 208 178 159 161 167 170 171 174 173 174 178 184 192 197 202 215 230 238 242 248 256 261 268 270 273 275
198 199 177 194 200 184 183 209 226 212 239 240 218 231 256 221 207 191 180 162 154 151 153 159 161 164 166 170 178 186 193 202 211 222 231 240 246 253 260 265 268 270 271 276
187 184 177 169 163 199 208 174 175 197 204 229 228 225 211 181 186 175 166 159 143 133 138 144 151 155 159 163 174 185 195 206 217 227 236 247 253 260 266 269 272 274 275 275
184 164 160 180 201 192 176 185 197 195 227 227 230 211 156 180 176 174 167 144 130 130 138 142 146 150 151 153 164 181 196 208 222 236 248 258 264 268 270 271 275 279 280 278
179 172 184 198 198 258 212 200 190 196 205 221 238 209 101 144 156 161 148 128 118 118 126 133 137 138 142 151 164 180 205 224 239 250 259 266 268 271 274 278 283 284 284 283
164 167 162 179 193 192 214 210 206 197 184 202 218 206 121 119 109 96 117 114 108 106 111 123 126 129 133 147 167 185 228 260 269 267 267 272 276 278 280 285 289 289 289 287
172 186 215 214 204 180 200 202 197 195 213 218 228 224 198 206 191 70 89 112 102 100 108 113 116 110 107 132 189 276 292 298 298 290 280 277 280 283 286 289 291 292 292 289
173 203 217 254 248 193 206 204 202 211 220 225 231 230 232 238 230 204 192 167 148 131 105 107 136 93 50 350 337 323 311 311 309 299 292 288 288 289 290 291 293 294 292 290
174 198 198 230 226 214 227 220 215 221 226 234 243 246 250 254 244 224 220 200 206 224 259 280 291 289 294 311 318 319 314 313 306 298 297 301 299 296 296 296 296 296 296 295
175 171 194 220 217 202 236 226 217 218 221 225 234 238 214 232 243 239 224 207 211 226 252 267 279 294 306 309 311 307 308 312 308 305 305 307 307 305 304 302 299 296 298 298
176 177 194 184 180 222 232 117 213 218 226 229 237 237 226 238 248 252 240 227 238 259 274 282 293 304 312 320 325 321 316 314 310 309 311 313 312 308 307 304 301 301 300 298
198 180 183 195 219 248 251 233 192 203 230 235 233 238 239 224 237 241 211 223 266 285 287 289 294 299 304 314 323 320 314 314 311 312 312 311 309 307 306 303 301 302 299 298
185 193 196 205 223 231 256 30 260 188 223 226 223 230 222 199 227 230 27 338 330 334 327 326 324 315 311 320 321 311 308 307 307 307 306 305 304 302 301 300 300 300 297 296
172 187 208 217 232 247 333 333 177 203 228 56 210 214 202 212 252 335 6 356 353 348 342 340 337 334 330 326 319 308 306 305 308 307 304 304 303 300 299 300 300 301 300 298
190 187 198 206 222 236 78 149 190 269 30 74 114 162 185 186 76 83 37 10 4 359 351 346 342 337 332 327 320 313 313 316 314 309 305 305 304 303 302 302 302 302 299 297
209 213 207 207 224 17 151 187 281 342 99 357 10 27 133 147 241 333 343 346 347 345 341 339 337 333 330 329 321 310 313 317 314 310 307 307 307 306 305 303 303 303 298 296
219 251 208 216 231 245 177 53 24 39 67 63 45 32 90 182 258 302 320 326 330 332 330 328 328 327 325 327 321 311 310 311 308 308 310 309 308 308 308 304 300 300 297 296
202 183 207 228 251 274 253 295 340 53 56 47 28 8 357 138 285 295 304 311 314 318 321 319 314 312 313 317 315 313 313 311 307 307 308 308 305 303 303 301 298 295 290 290
194 200 212 232 221 232 256 7 351 27 7 7 2 354 354 325 298 304 303 308 310 313 317 317 314 310 310 312 311 313 315 308 304 304 305 304 303 303 301 303 305 301 294 302
Height
1469 1469 1464 1462 1465 1465 1464 1465 1466 1468 1475 1476 1471 1467 1465 1468 1470 1470 1471 1472 1474 1476 1479 1481 1483 1485 1488 1490 1492 1494 1496 1497 1498 1499 1500 1501 1501 1501 1501 1500 1500 1499 1498 1497
1467 1463 1459 1463 1466 1469 1468 1467 1466 1471 1476 1474 1469 1464 1461 1462 1463 1465 1466 1467 1469 1472 1475 1476 1478 1481 1483 1485 1488 1490 1492 1494 1496 1497 1498 1498 1498 1498 1498 1497 1497 1496 1495 1494
1455 1458 1461 1464 1466 1467 1466 1465 1465 1468 1474 1475 1472 1457 1453 1455 1458 1460 1461 1463 1464 1467 1469 1471 1473 1476 1479 1481 1484 1486 1489 1491 1493 1494 1495 1495 1495 1495 1495 1494 1493 1493 1492 1491
1456 1459 1461 1462 1462 1463 1463 1466 1468 1471 1470 1464 1469 1454 1444 1449 1452 1455 1456 1458 1459 1462 1464 1467 1469 1472 1474 1477 1481 1483 1485 1488 1489 1490 1491 1492 1492 1492 1491 1491 1490 1489 1488 1487
1453 1457 1458 1458 1458 1462 1462 1467 1469 1470 1469 1469 1467 1464 1441 1447 1447 1447 1450 1453 1455 1457 1460 1462 1465 1468 1471 1474 1477 1480 1482 1484 1486 1487 1488 1488 1489 1488 1488 1487 1486 1485 1484 1483
1453 1457 1456 1456 1460 1462 1466 1469 1472 1471 1469 1469 1457 1458 1439 1440 1441 1442 1447 1449 1452 1454 1457 1459 1462 1465 1468 1471 1473 1476 1478 1480 1482 1483 1484 1485 1485 1485 1484 1483 1482 1481 1480 1478
1453 1454 1455 1457 1459 1464 1463 1462 1468 1469 1468 1454 1456 1455 1439 1438 1442 1443 1446 1448 1450 1452 1454 1457 1459 1461 1464 1466 1469 1472 1475 1477 1478 1480 1480 1481 1481 1480 1480 1479 1478 1477 1475 1474
1445 1446 1450 1452 1451 1453 1455 1453 1453 1452 1445 1442 1460 1449 1437 1441 1444 1445 1447 1448 1449 1450 1452 1454 1456 1458 1461 1463 1466 1469 1471 1473 1475 1476 1476 1477 1476 1476 1475 1475 1473 1472 1470 1469
1438 1441 1448 1450 1450 1450 1453 1451 1449 1450 1453 1447 1439 1440 1440 1441 1442 1444 1445 1446 1447 1449 1450 1452 1454 1456 1458 1460 1463 1465 1468 1469 1471 1472 1473 1473 1472 1472 1471 1470 1469 1467 1465 1464
1437 1443 1447 1450 1451 1452 1450 1449 1454 1453 1449 1437 1430 1433 1429 1435 1438 1441 1443 1444 1446 1448 1449 1451 1452 1454 1456 1458 1460 1463 1465 1466 1467 1468 1468 1468 1468 1467 1466 1465 1463 1462 1460 1458
1439 1443 1447 1448 1445 1444 1450 1451 1446 1444 1442 1433 1426 1426 1430 1433 1436 1439 1441 1443 1445 1447 1448 1449 1451 1453 1454 1456 1458 1460 1461 1463 1464 1464 1464 1464 1463 1463 1461 1460 1458 1457 1455 1453
1438 1439 1441 1443 1447 1447 1443 1441 1443 1442 1447 1443 1429 1430 1435 1437 1438 1440 1442 1443 1445 1446 1447 1449 1450 1451 1452 1454 1455 1457 1458 1459 1460 1460 1460 1459 1459 1458 1456 1455 1453 1451 1449 1447
1438 1440 1440 1441 1448 1449 1446 1444 1444 1444 1442 1439 1432 1429 1437 1437 1439 1440 1442 1443 1444 1445 1447 1448 1449 1449 1450 1451 1453 1454 1454 1455 1456 1456 1455 1455 1454 1453 1451 1449 1448 1446 1443 1441
1436 1437 1432 1425 1425 1434 1441 1443 1445 1443 1439 1435 1430 1427 1433 1435 1437 1440 1441 1443 1444 1445 1446 1447 1447 1448 1449 1450 1450 1451 1452 1452 1452 1452 1451 1450 1449 1448 1446 1445 1442 1440 1438 1435
1435 1435 1435 1433 1432 1433 1434 1436 1439 1440 1434 1433 1427 1430 1430 1434 1437 1440 1441 1442 1443 1444 1445 1445 1446 1446 1447 1447 1448 1448 1449 1449 1448 1448 1447 1446 1444 1443 1441 1439 1437 1435 1432 1430
1436 1436 1435 1435 1434 1433 1433 1432 1433 1434 1433 1433 1432 1431 1432 1436 1438 1439 1441 1442 1442 1443 1444 1444 1444 1445 1445 1445 1445 1445 1445 1445 1445 1444 1443 1441 1440 1438 1436 1434 1432 1429 1427 1424
1436 1437 1434 1430 1435 1434 1430 1428 1429 1429 1429 1429 1428 1428 1433 1435 1437 1438 1439 1440 1441 1442 1442 1442 1442 1442 1443 1443 1443 1442 1442 1442 1441 1440 1439 1437 1435 1433 1431 1429 1427 1424 1422 1419
1436 1436 1434 1432 1435 1431 1422 1426 1426 1427 1428 1430 1429 1430 1432 1434 1436 1437 1438 1439 1439 1440 1440 1440 1440 1440 1440 1440 1440 1440 1439 1438 1437 1436 1435 1433 1431 1429 1427 1425 1422 1420 1417 1414
1433 1435 1434 1432 1426 1421 1424 1428 1428 1428 1428 1430 1431 1431 1433 1434 1435 1436 1436 1437 1438 1438 1439 1438 1438 1438 1438 1438 1437 1437 1436 1435 1434 1433 1431 1429 1427 1425 1422 1420 1417 1415 1412 1409
1433 1434 1433 1431 1425 1421 1422 1427 1428 1429 1427 1429 1430 1431 1432 1433 1431 1433 1435 1435 1436 1436 1436 1436 1436 1435 1435 1435 1434 1434 1433 1432 1431 1429 1427 1425 1423 1421 1418 1416 1413 1410 1407 1404
1432 1432 1432 1429 1425 1420 1427 1428 1428 1427 1425 1430 1430 1430 1431 1431 1432 1434 1433 1434 1434 1434 1434 1434 1433 1433 1433 1432 1432 1431 1430 1429 1427 1425 1423 1421 1419 1417 1414 1411 1408 1406 1403 1400
1425 1426 1429 1428 1426 1424 1428 1428 1428 1427 1429 1429 1429 1430 1431 1431 1432 1432 1432 1432 1432 1432 1432 1431 1431 1430 1430 1430 1429 1428 1427 1425 1423 1421 1419 1417 1415 1412 1410 1407 1404 1401 1398 1395
1425 1425 1423 1424 1425 1427 1428 1428 1429 1429 1429 1429 1429 1429 1430 1430 1431 1431 1431 1431 1431 1431 1430 1430 1429 1428 1427 1427 1426 1425 1423 1422 1419 1417 1415 1413 1410 1408 1405 1403 1400 1397 1394 1391
1426 1428 1426 1426 1426 1428 1428 1428 1428 1428 1428 1429 1429 1429 1429 1429 1429 1430 1430 1430 1430 1429 1429 1428 1427 1426 1425 1424 1423 1422 1420 1418 1416 1413 1411 1409 1406 1404 1401 1399 1396 1393 1390 1388
1424 1426 1425 1425 1427 1428 1427 1428 1428 1428 1428 1428 1428 1428 1428 1428 1428 1429 1428 1428 1428 1427 1426 1426 1425 1424 1423 1421 1420 1418 1416 1414 1412 1410 1407 1405 1402 1400 1397 1395 1392 1390 1387 1385
1425 1426 1424 1422 1425 1426 1426 1427 1427 1427 1427 1427 1427 1427 1427 1427 1427 1427 1426 1426 1425 1425 1424 1423 1422 1421 1419 1418 1416 1414 1413 1410 1408 1406 1403 1401 1399 1396 1394 1391 1388 1385 1384 1381